Theta_e
328 328 328 327 326 324 324 324 323 323 323 323 322 321 321 320 317 316 316 317 316 315 314 316 316 315 315 314 314 314 314 314 314 313 314 315 314 314 314 315 315 314 313 313 313 313 313 313 314 315 317 318 319 319 319 319 319 320 321 321 320 318 317 315 314 313 314 313 311 309 308 308 308 309 309 309 309 308 308 308 308 308 308 309 309
328 327 327 327 327 325 324 323 323 323 323 322 322 321 320 319 317 317 318 317 316 315 314 315 316 315 315 314 314 314 313 314 314 314 313 314 314 314 315 314 314 315 314 314 313 313 313 313 313 314 314 314 315 315 315 315 316 316 318 320 320 319 318 315 313 312 313 313 311 309 309 309 308 309 310 310 309 309 308 308 308 308 308 309 309
328 327 327 326 326 325 324 324 323 323 323 322 322 321 320 318 317 318 318 317 315 314 314 315 316 316 315 315 314 314 315 315 315 315 314 314 315 315 315 314 313 314 314 313 313 313 313 314 314 313 313 313 313 314 314 314 315 315 316 318 320 320 318 315 312 312 312 311 310 309 308 308 308 309 309 310 310 309 309 309 309 308 308 308 309
327 327 327 326 325 324 324 323 323 323 323 323 322 321 319 318 318 318 318 316 314 315 316 315 315 316 316 316 316 316 316 316 315 315 315 315 316 316 316 315 314 314 314 313 313 313 313 314 315 314 313 313 313 314 314 314 315 314 315 317 318 318 317 315 312 311 311 310 310 309 309 309 308 308 308 309 309 309 310 310 310 309 309 308 309
327 326 326 325 324 324 324 323 323 323 322 322 321 320 319 318 318 318 318 316 316 316 317 315 316 317 317 316 316 316 316 317 316 316 317 317 317 316 316 315 315 315 315 315 315 315 314 314 315 315 314 313 313 313 314 314 313 313 313 313 314 314 314 312 310 310 310 310 310 309 309 309 309 308 308 308 308 309 310 310 310 309 309 308 309
325 325 325 325 324 324 324 323 322 322 322 321 321 319 319 319 318 319 317 316 317 316 316 316 317 318 318 316 317 317 317 317 317 317 318 319 319 317 315 316 316 316 316 315 316 316 317 316 317 317 316 314 313 314 314 314 313 312 312 311 311 311 310 309 309 309 309 309 309 309 309 309 309 309 308 308 308 310 310 310 309 309 309 309 310
323 324 325 324 323 323 323 322 321 320 319 319 318 318 319 320 319 319 318 316 317 317 317 317 318 319 318 317 318 319 319 319 320 318 318 320 320 318 316 317 318 318 318 317 317 318 318 318 318 318 318 316 315 314 314 315 315 315 314 314 313 312 311 310 309 308 308 309 310 312 311 311 310 310 309 308 309 311 311 310 310 310 310 310 310
323 324 324 323 322 322 322 321 321 320 317 316 317 318 319 320 319 318 318 317 317 318 319 319 319 320 319 318 319 320 320 321 321 319 319 320 320 319 318 319 320 320 320 319 318 319 319 320 319 319 319 319 318 317 316 315 316 316 316 316 316 315 314 313 311 309 309 311 312 314 314 313 312 311 310 310 310 311 311 311 311 311 310 310 309
322 322 321 321 321 320 320 320 320 320 316 315 320 321 319 320 319 319 319 318 317 318 319 319 320 320 320 319 320 321 321 321 322 321 321 321 321 321 321 321 321 321 321 320 320 320 320 320 320 320 320 320 319 319 318 317 315 315 316 316 317 317 316 315 313 312 312 312 313 314 314 314 314 313 312 311 311 312 311 311 311 310 309 309 308
322 321 320 321 320 320 320 320 320 319 317 318 321 321 319 320 319 319 319 319 319 319 320 320 320 320 320 320 320 321 321 321 322 322 322 322 322 323 322 322 322 321 321 321 321 321 321 320 320 320 321 320 320 320 320 318 316 315 315 316 316 316 316 316 315 315 314 314 314 314 314 314 314 314 312 312 312 312 311 311 310 308 308 308 307
322 321 321 322 322 320 320 321 322 321 321 321 322 321 320 319 317 316 317 318 319 319 319 320 320 320 320 321 321 321 321 321 322 323 323 323 323 323 323 323 323 322 321 320 320 320 320 320 320 320 320 321 320 320 320 319 318 316 316 316 316 316 316 316 316 315 315 314 314 314 314 313 313 312 311 311 310 310 310 309 309 308 307 307 306
321 321 322 323 323 321 320 320 321 321 320 320 320 320 317 315 314 316 318 319 319 318 318 319 320 320 321 321 321 321 321 321 321 322 322 323 322 323 322 322 322 321 321 320 319 319 319 320 320 320 320 320 320 320 320 319 318 317 317 317 317 317 317 316 316 316 315 315 314 313 313 313 311 310 310 309 309 308 308 307 307 306 306 305 304
321 321 321 322 322 322 322 321 320 321 321 321 321 320 317 315 316 319 320 319 319 319 319 319 320 320 321 321 321 321 320 320 320 319 320 321 321 320 321 321 321 320 320 320 319 318 319 320 320 320 320 320 320 320 320 319 319 318 318 317 317 317 316 316 316 316 315 315 314 313 312 312 311 310 309 309 309 308 307 306 305 304 304 303 302
318 319 320 321 321 321 321 321 321 320 321 321 322 322 321 319 320 320 320 320 319 319 319 319 320 320 320 320 320 320 320 319 319 319 319 319 319 319 319 320 321 320 320 319 319 318 319 320 320 320 321 320 319 319 320 319 318 317 315 315 315 315 315 316 316 315 315 315 314 313 312 311 311 310 309 308 307 306 305 304 303 303 302 301 299
309 311 314 316 318 320 320 321 321 320 319 320 320 321 320 320 320 320 320 320 320 320 320 320 320 320 320 320 320 320 320 320 320 319 319 319 318 318 319 320 321 320 319 318 318 319 319 320 320 321 321 320 319 319 318 317 314 311 310 311 311 311 312 312 313 313 313 313 314 313 312 310 309 308 307 306 305 304 303 302 302 301 300 299 298
303 304 305 307 310 313 315 317 318 319 319 319 320 320 319 319 320 320 320 320 320 320 320 321 321 320 319 319 319 319 320 320 320 319 319 318 318 317 318 320 320 320 319 318 317 318 320 320 320 320 320 319 317 316 314 312 310 308 308 309 308 308 308 308 308 308 309 310 311 311 310 308 307 306 305 304 303 302 301 301 300 300 299 298 298
301 302 302 302 303 305 307 309 311 312 314 315 317 319 320 320 320 319 320 320 320 319 319 319 320 319 319 319 319 319 319 319 320 319 318 317 317 318 319 319 320 319 319 318 317 318 320 321 320 319 318 317 315 314 313 312 310 309 309 309 309 308 308 307 307 307 307 308 308 308 307 306 305 304 303 302 301 301 301 301 300 300 299 299 298
300 301 301 301 301 302 303 304 304 305 305 306 308 312 316 319 320 320 320 320 320 320 320 320 320 320 320 319 319 319 319 319 318 318 318 318 318 319 319 319 319 318 318 317 317 319 321 321 320 319 317 316 316 315 314 313 312 311 311 310 310 309 308 308 307 307 306 305 305 305 305 304 303 303 302 301 301 301 301 301 301 300 300 299 298
299 300 300 301 301 301 302 302 303 303 302 302 303 304 307 311 315 319 320 320 321 321 321 320 320 320 320 319 319 319 319 318 318 318 318 318 319 319 319 317 317 317 317 317 318 319 320 321 321 319 316 316 316 316 315 313 312 311 311 310 310 309 308 307 306 305 304 304 304 304 303 302 302 301 301 300 300 300 300 300 300 300 299 298 297
299 299 299 300 300 300 301 301 302 302 302 302 302 302 302 303 306 309 313 316 318 320 320 320 320 320 319 319 319 319 319 319 318 318 318 318 318 318 316 314 314 316 316 317 317 318 319 320 320 319 316 315 316 316 314 312 311 311 310 310 310 309 307 306 305 304 304 304 303 302 301 300 300 299 299 299 298 298 298 298 298 298 298 297 296
298 298 298 298 299 299 299 300 300 301 301 301 302 302 302 302 302 303 304 307 310 312 314 316 318 319 320 319 318 318 318 318 317 317 316 316 316 316 314 312 313 315 316 316 316 317 318 320 320 318 316 315 315 314 311 310 309 308 309 309 309 309 308 306 305 305 305 304 302 301 299 298 298 298 298 297 297 297 297 297 296 296 296 295 295
297 297 297 297 297 298 298 299 299 299 300 300 301 301 301 301 302 302 302 303 304 305 307 309 312 315 317 318 319 318 317 316 315 315 313 310 309 309 309 310 313 315 315 316 316 316 316 318 318 317 315 314 312 308 305 304 305 306 307 308 309 308 308 307 306 305 304 302 300 299 298 298 298 297 297 297 296 296 296 296 295 295 295 295 294
296 296 296 296 296 296 297 297 298 298 298 299 299 300 300 300 300 301 301 302 303 303 304 305 307 308 311 313 316 317 317 315 313 311 309 306 305 304 306 310 313 314 314 315 315 315 315 316 317 315 313 310 306 302 301 301 303 306 308 308 308 307 306 305 304 303 301 300 299 298 297 297 297 296 296 296 295 295 295 294 294 294 293 293 293
296 296 296 296 296 296 296 296 296 297 297 297 298 299 299 299 299 300 300 301 301 302 303 303 303 304 306 308 311 313 315 316 314 311 308 306 304 303 305 308 311 313 314 314 314 315 314 315 315 313 310 306 302 300 301 302 304 306 306 306 305 304 302 301 300 299 299 298 298 298 297 296 296 296 295 295 294 294 293 293 292 292 292 291 291
295 295 295 295 295 295 295 296 296 296 296 297 297 298 298 298 299 299 299 300 300 301 301 302 302 302 302 304 306 307 309 312 313 313 312 309 305 303 304 306 308 310 312 313 313 314 313 313 313 310 307 304 301 301 302 303 304 304 304 303 303 302 300 299 298 298 298 298 297 297 296 296 295 295 294 294 293 293 292 292 291 291 290 290 290
295 295 294 294 294 295 295 295 295 295 296 296 296 297 297 298 298 298 298 299 300 300 300 301 301 300 301 301 302 303 304 306 308 311 312 311 307 303 302 304 305 307 309 310 311 311 312 311 310 307 304 302 302 302 303 303 303 303 302 302 302 301 299 299 298 298 298 297 297 296 296 295 295 294 294 293 292 292 292 291 291 290 290 290 290
295 294 294 294 294 294 294 294 295 295 295 295 295 296 296 296 297 297 298 298 299 300 300 300 299 300 301 301 301 301 302 303 305 307 309 310 308 304 302 302 303 304 306 307 308 308 308 308 306 304 302 302 302 302 302 303 302 302 301 300 300 299 298 298 298 297 297 296 296 296 295 294 294 293 293 292 292 292 291 291 290 291 290 290 290
293 293 293 293 293 294 294 294 294 294 294 294 294 295 295 295 296 296 297 298 298 299 299 300 300 300 300 301 301 301 302 302 303 305 306 307 307 306 304 301 301 302 304 305 306 305 304 303 302 301 301 301 301 300 300 301 300 299 299 298 298 298 298 297 297 297 296 296 295 295 295 294 293 293 293 292 292 292 291 291 291 291 291 290 290
292 292 292 292 293 293 293 293 294 294 294 294 294 294 294 295 295 296 296 297 298 298 298 299 300 300 300 301 300 300 302 302 303 305 306 306 307 307 305 302 301 302 302 303 304 304 303 301 299 298 297 298 298 297 298 298 297 297 297 298 297 298 297 297 297 296 296 296 295 295 294 293 293 293 292 292 292 291 291 291 291 291 290 290 290
292 291 291 292 292 293 293 293 293 293 293 294 294 294 294 294 295 295 295 296 297 297 298 298 299 300 300 301 300 300 301 302 303 304 305 306 306 306 305 304 303 302 300 301 302 303 303 301 299 298 297 298 297 296 296 296 296 297 297 298 297 297 297 297 297 297 296 296 295 294 294 293 293 293 292 292 291 291 291 291 291 291 291 291 290
291 291 291 292 292 292 292 292 292 292 293 294 295 295 295 295 295 295 295 295 296 297 297 298 299 300 300 300 301 301 301 302 303 304 305 305 305 305 304 304 304 302 300 301 302 303 302 300 299 299 300 299 298 298 298 297 297 297 298 298 297 297 297 297 297 296 296 295 294 294 293 293 293 292 292 291 291 291 291 291 291 291 290 290 289
291 291 291 291 292 292 292 292 293 293 294 294 295 294 294 294 295 296 296 296 296 296 296 297 297 298 299 300 300 300 301 301 302 303 305 305 305 305 304 304 302 300 300 301 302 302 302 301 299 300 300 300 300 300 300 299 298 298 298 298 297 297 296 296 296 295 295 294 294 294 293 293 292 292 291 291 291 291 291 291 290 290 290 289 289
291 291 291 291 292 292 293 293 294 294 294 293 293 293 293 292 292 293 294 295 295 296 296 296 296 297 298 299 299 300 300 301 301 303 304 305 306 305 305 304 303 301 300 301 301 301 301 301 301 301 302 301 301 301 301 299 299 298 299 298 297 297 296 295 295 295 294 294 294 293 293 292 292 292 291 291 291 291 291 290 290 290 289 289 288
291 291 292 292 293 294 294 294 293 293 292 292 292 291 291 291 290 290 291 293 294 294 295 295 296 296 297 298 298 299 300 300 301 302 303 304 305 305 304 303 302 300 300 301 301 301 301 301 301 302 302 301 301 301 301 300 299 298 298 297 297 297 296 295 294 294 294 294 293 293 292 292 292 292 291 291 291 290 290 290 289 289 288 288 289
292 292 293 294 294 294 293 293 293 292 292 291 290 290 290 290 290 289 289 289 291 292 293 293 294 295 296 297 297 298 299 300 300 301 302 303 304 304 302 301 300 299 299 300 301 301 301 301 300 300 300 300 300 301 301 301 299 298 298 297 297 297 296 295 294 294 294 293 293 292 292 292 291 291 291 290 290 290 290 289 289 289 288 289 289
294 294 294 295 295 294 293 293 293 292 291 291 290 290 290 290 289 288 288 289 290 291 292 293 294 295 296 297 297 297 298 298 299 300 301 302 302 301 300 300 300 299 299 299 299 300 300 299 299 298 298 299 300 301 302 301 300 299 298 298 298 297 295 295 294 294 293 292 292 291 291 291 291 291 290 290 289 289 288 288 289 289 289 289 289
295 295 295 295 295 294 293 293 293 292 291 291 291 290 290 290 290 288 287 289 290 291 292 292 293 294 296 297 296 296 296 297 297 298 299 300 300 298 299 300 300 300 300 299 298 298 298 298 297 297 298 299 300 300 300 301 300 298 298 298 298 296 295 294 294 293 292 291 291 291 291 291 291 291 290 289 289 288 288 288 289 289 289 289 289
296 296 296 295 294 294 294 293 292 291 291 291 291 290 290 290 289 287 287 288 290 291 291 292 292 293 294 295 296 296 296 296 296 296 296 297 297 296 297 299 299 298 299 298 298 297 298 298 297 297 298 299 299 299 299 300 300 299 298 297 297 295 294 294 293 292 291 291 291 291 291 291 291 290 289 289 288 288 288 288 288 288 288 289 289
296 296 296 295 294 294 294 293 292 292 292 291 291 291 290 289 287 286 286 288 289 290 290 291 292 292 293 294 295 295 295 295 295 295 295 295 295 294 295 296 297 296 296 297 297 298 298 298 297 298 298 298 298 298 298 298 299 298 297 296 295 294 294 293 292 291 291 291 291 291 291 291 290 289 289 288 288 288 288 288 288 288 289 289 289
296 296 295 295 294 294 293 293 292 292 292 291 291 291 290 287 286 286 287 288 289 289 290 290 291 292 293 294 294 295 295 295 295 294 294 294 294 294 294 294 295 296 296 296 297 297 297 297 297 298 298 298 298 298 298 298 297 296 295 295 294 293 293 292 291 291 291 291 291 291 290 290 289 288 288 288 288 288 288 288 288 289 289 289 289
296 296 295 295 294 294 293 293 293 292 292 291 291 290 289 286 286 287 289 289 289 289 289 290 291 292 293 293 294 294 295 295 294 294 294 294 293 294 294 294 295 295 296 296 296 296 297 297 297 297 298 298 297 296 296 296 295 294 293 293 293 292 291 291 291 291 291 291 291 290 289 289 288 288 288 288 288 288 288 288 288 289 289 290 290
296 296 295 295 294 294 293 293 293 292 292 292 291 289 287 286 286 288 289 289 289 290 290 290 291 291 292 293 293 293 294 294 294 293 293 294 294 294 294 295 295 295 295 296 296 296 297 297 297 298 299 298 295 294 294 294 293 292 292 292 292 291 291 290 290 290 290 290 289 288 288 288 288 288 288 288 288 288 288 289 289 289 289 290 290
296 295 295 295 294 294 293 293 293 293 292 292 291 289 287 286 287 288 289 289 289 290 290 290 290 291 291 292 292 293 293 293 294 293 293 293 294 294 294 295 295 295 295 296 296 296 296 296 295 295 295 294 292 292 293 293 293 293 292 292 291 290 290 290 290 290 289 288 287 287 288 288 288 288 288 288 288 288 289 289 289 289 289 290 290
296 296 295 295 294 294 294 293 293 293 292 291 291 290 288 287 288 289 289 289 289 289 290 290 290 290 291 291 291 291 292 292 293 293 292 292 292 292 293 294 295 295 296 296 296 295 295 294 292 291 291 291 291 291 292 292 292 292 292 291 290 290 290 289 288 288 287 287 287 287 288 288 288 288 288 288 288 288 289 289 289 289 289 289 290
295 296 296 295 294 294 294 293 293 293 292 291 291 290 289 288 289 289 290 290 289 289 289 289 290 290 290 290 290 290 290 291 291 291 290 289 289 289 289 290 292 293 294 294 293 293 292 292 291 291 291 291 291 291 291 291 290 290 290 290 289 289 288 288 287 287 287 287 287 287 287 288 288 288 288 287 288 289 289 289 288 289 289 289 290
295 295 296 296 295 295 295 294 294 293 292 292 291 290 290 289 290 290 290 290 290 290 290 289 289 289 289 289 288 288 288 288 289 288 288 288 288 287 287 288 289 290 291 291 290 290 290 290 290 290 290 290 290 290 290 290 290 290 289 289 288 288 288 288 288 288 288 287 287 287 287 287 288 288 288 288 288 289 289 288 288 289 289 289 290
296 295 295 296 296 296 295 294 294 293 293 292 291 291 291 290 290 290 290 290 290 290 290 290 289 289 288 288 288 288 288 288 287 287 287 287 287 287 287 288 289 289 289 289 289 289 289 290 290 290 290 290 290 290 290 289 289 289 288 288 288 288 288 288 287 287 287 287 287 287 287 287 287 288 288 288 288 289 288 288 288 289 289 289 289
296 296 296 296 296 296 295 295 294 293 293 292 291 291 291 291 290 290 290 290 290 290 290 290 290 290 289 289 288 288 288 288 288 288 288 288 288 288 288 289 289 289 289 289 289 289 289 289 289 289 289 289 289 289 289 288 288 288 287 287 287 287 287 287 287 287 287 287 287 287 287 286 287 288 288 288 288 288 288 288 288 289 289 289 289
296 296 296 296 296 296 296 295 294 293 293 293 292 291 291 290 290 290 290 290 290 290 290 290 291 291 291 290 290 290 290 290 289 289 289 289 289 289 289 289 289 289 289 289 289 289 289 289 289 289 289 289 288 288 287 287 287 287 287 287 287 287 287 287 287 287 287 288 288 288 287 286 287 287 288 288 288 288 288 288 288 288 289 289 289
295 295 295 295 295 295 295 295 294 294 293 293 292 291 291 290 290 290 290 290 290 290 289 289 290 290 290 290 291 290 291 291 291 291 291 290 290 291 291 290 290 290 290 290 289 289 289 289 289 288 288 287 287 287 287 287 286 286 285 285 285 284 284 285 285 286 287 288 288 288 287 286 287 288 288 288 288 288 288 288 288 288 288 289 289
295 295 294 294 295 294 294 294 294 294 293 293 292 292 291 290 290 290 289 289 289 290 289 289 289 289 289 289 290 289 290 290 290 290 290 290 290 290 290 290 290 290 290 289 289 289 288 288 287 287 287 286 286 286 285 285 284 284 283 283 283 283 283 283 284 284 285 286 287 287 286 286 287 287 287 287 288 288 288 288 288 288 288 289 288
Wind_Speed
23 23 22 21 22 22 22 22 22 21 21 21 20 18 16 14 13 13 13 13 12 12 12 13 13 13 12 10 10 10 10 9 9 11 13 13 12 11 10 9 9 10 10 11 10 10 12 13 12 12 13 15 16 16 16 15 16 19 19 21 20 15 14 13 10 10 13 11 10 13 13 12 10 9 10 10 10 10 9 8 6 5 5 4 4
24 24 22 22 23 23 23 22 22 22 22 20 20 20 18 16 15 14 14 13 12 12 13 14 13 12 12 11 11 11 10 10 10 11 13 13 12 11 9 8 8 9 9 9 9 8 9 11 10 10 11 13 14 13 12 12 12 15 19 23 24 20 16 14 11 12 13 11 11 13 13 12 10 9 10 10 10 9 8 7 6 4 3 2 2
23 24 24 23 24 25 24 24 24 23 22 21 22 21 20 19 17 15 15 13 12 12 14 14 13 12 13 12 12 12 12 11 11 11 12 13 12 10 8 7 7 7 7 7 6 6 6 8 8 8 8 10 11 11 10 10 10 12 16 23 26 23 20 15 11 12 14 13 13 14 13 12 10 9 8 8 7 6 6 5 5 5 4 2 0
24 24 24 23 24 25 24 25 24 23 22 22 22 22 22 21 19 16 14 14 13 13 13 14 14 14 14 14 13 13 13 12 12 11 11 11 10 9 8 8 7 6 5 5 4 3 4 5 6 6 6 8 9 9 9 9 9 10 13 20 23 23 21 17 12 12 15 15 14 14 14 12 10 9 9 8 6 5 5 5 6 6 5 4 3
24 24 24 23 24 26 26 25 24 23 24 23 21 22 23 21 18 16 15 16 16 14 13 15 16 15 15 15 14 14 14 13 12 12 11 9 9 10 10 9 8 6 5 5 3 2 2 3 5 5 5 6 7 7 8 8 8 9 11 16 19 20 18 16 12 13 15 16 15 14 13 13 11 10 10 9 8 6 6 7 7 7 7 6 5
22 24 24 24 25 26 27 25 23 23 23 21 19 21 20 18 17 18 18 19 19 17 16 18 18 16 16 16 15 15 15 14 14 13 12 11 10 12 12 11 9 8 7 6 5 4 3 3 4 4 4 5 7 6 7 8 8 10 12 13 14 15 14 13 12 12 14 15 14 13 12 12 11 10 10 9 9 7 6 6 5 6 8 7 6
23 26 26 25 26 27 26 25 24 22 19 16 16 18 18 18 21 21 20 21 21 19 18 19 19 18 18 19 18 16 16 16 16 16 15 13 12 13 13 12 10 9 8 8 7 7 6 5 4 4 4 4 6 7 7 7 8 9 9 9 10 10 10 11 11 12 14 14 11 10 10 9 9 8 8 9 9 7 7 8 8 9 9 7 6
25 28 27 28 30 30 29 29 28 25 22 19 19 20 22 24 24 23 22 22 22 20 19 19 20 19 20 21 20 19 18 17 17 18 18 15 14 14 14 13 12 11 10 10 10 9 9 8 7 7 6 5 5 6 6 7 7 8 9 9 9 9 9 10 10 12 13 12 11 10 9 8 8 7 8 9 10 8 9 10 10 10 9 7 6
23 23 22 27 31 32 31 31 30 28 28 27 26 25 27 28 26 25 24 23 22 22 21 21 21 21 21 22 21 21 20 19 18 19 19 17 16 15 15 15 14 13 13 13 12 12 12 11 10 9 9 9 8 7 6 7 8 9 9 9 10 10 10 10 11 12 11 10 10 9 9 8 8 8 8 9 9 8 9 9 9 9 7 6 6
21 18 15 20 26 30 30 30 29 29 31 31 30 29 30 29 28 27 25 25 24 23 23 23 23 23 23 23 23 23 23 21 20 20 20 18 17 17 17 17 16 14 14 15 15 15 14 13 13 12 12 11 10 9 8 8 9 9 9 9 10 10 11 11 10 10 10 9 8 8 7 7 6 8 9 8 7 7 6 6 7 6 4 3 4
20 19 16 16 22 25 26 26 28 29 31 31 30 30 30 29 27 26 25 25 25 24 24 25 24 24 24 24 25 24 23 22 21 21 21 19 19 18 18 18 17 16 16 16 16 16 16 15 15 14 14 13 13 12 11 11 10 10 10 9 8 8 8 9 9 9 9 8 7 6 6 6 6 7 8 7 7 6 5 4 3 1 1 1 1
16 16 14 14 16 18 19 21 23 24 25 26 27 27 26 25 25 26 26 26 24 24 26 26 25 25 24 24 24 24 22 22 21 21 21 20 20 19 19 19 18 17 17 17 17 17 17 17 16 16 15 14 14 15 14 14 13 12 11 9 8 6 6 7 8 8 8 8 7 6 5 6 7 7 7 7 5 3 2 1 2 2 3 4 4
12 10 9 10 10 11 14 15 17 19 20 20 21 22 23 23 25 26 26 25 24 24 26 26 25 25 25 25 24 23 22 21 21 21 21 21 20 20 20 20 19 18 18 17 17 17 18 18 18 17 16 15 15 16 16 15 14 12 11 9 8 8 7 7 6 6 6 7 7 6 5 6 7 7 6 4 2 0 2 3 4 4 5 5 4
17 13 10 8 7 6 8 10 11 12 10 10 12 14 15 17 21 24 24 24 23 23 24 26 25 26 27 27 26 24 23 21 20 20 20 20 19 19 19 18 18 18 17 16 16 17 18 19 19 19 19 17 17 16 16 14 13 11 10 9 8 8 8 7 7 6 6 5 5 6 6 6 5 6 4 1 1 2 4 4 5 5 5 4 3
26 23 20 16 11 8 5 4 5 4 3 5 8 7 5 6 11 16 18 19 21 22 24 25 26 26 26 26 25 25 23 21 20 20 20 20 18 18 18 18 18 18 16 15 15 15 17 19 20 20 20 19 17 16 15 14 12 11 10 9 9 8 8 7 7 7 6 5 5 5 7 7 5 4 3 1 2 3 4 4 4 4 3 2 2
32 31 30 27 23 18 15 12 11 9 7 4 5 4 4 6 9 12 12 12 15 19 21 22 23 22 20 19 21 22 21 19 20 21 21 20 18 18 19 19 19 18 15 14 14 14 16 18 19 20 20 18 17 15 14 14 13 12 12 11 11 10 10 9 9 8 8 7 8 8 8 7 5 3 2 2 2 3 3 3 3 3 2 1 2
31 32 32 30 29 27 24 22 21 19 17 13 7 3 2 5 8 11 12 12 13 16 18 20 21 19 17 19 22 22 19 19 20 21 20 19 18 19 20 20 20 18 15 14 14 15 17 18 18 19 18 18 17 16 14 13 13 13 13 13 12 11 11 10 10 9 9 9 9 9 7 6 4 3 3 3 3 3 3 3 3 3 3 3 4
28 29 29 27 27 27 27 26 26 25 24 22 18 13 7 2 3 7 10 11 11 13 17 19 20 18 17 19 21 21 19 19 20 20 19 19 19 20 20 20 19 17 15 15 15 16 17 17 18 18 18 18 18 16 15 14 13 13 13 13 13 13 12 12 11 11 11 10 9 8 6 5 4 4 4 3 3 4 4 4 4 4 4 4 4
27 27 25 24 23 24 24 24 24 25 25 24 23 21 17 12 5 1 5 8 9 10 12 15 16 16 16 18 19 19 19 20 20 20 20 20 20 20 20 19 18 18 17 16 17 18 18 18 18 19 19 19 18 17 15 14 13 13 13 14 15 15 14 13 12 12 11 10 8 6 5 4 4 4 3 3 3 4 4 3 3 3 3 3 3
24 24 23 22 22 22 22 22 22 22 22 21 21 21 20 18 15 11 6 4 5 8 9 11 13 14 15 16 17 17 18 18 18 19 19 19 19 19 18 18 18 18 18 18 18 19 19 20 20 19 19 19 19 18 16 15 14 14 14 15 15 16 15 15 14 12 10 8 7 6 5 4 4 2 2 1 1 1 1 1 1 1 2 2 3
21 21 21 22 22 21 21 21 21 21 20 19 19 19 19 19 17 16 14 11 8 6 6 8 11 13 13 13 13 13 14 14 14 15 16 17 17 18 18 18 18 19 20 20 19 20 21 22 22 20 20 20 20 19 17 16 15 14 14 14 13 15 16 16 14 12 9 7 6 6 6 5 4 3 2 2 2 2 2 3 3 3 4 4 5
19 19 20 21 21 21 21 20 20 20 19 18 18 19 19 18 17 17 16 14 13 13 12 10 9 10 12 13 13 12 12 12 13 14 16 16 16 18 18 18 19 20 21 22 22 22 22 23 23 23 23 21 20 19 17 16 15 14 14 13 13 15 16 15 13 11 8 8 8 9 8 6 5 4 3 3 3 3 3 4 4 5 7 8 9
18 19 20 20 21 20 20 19 19 19 19 19 18 18 18 18 18 17 17 16 15 15 16 15 13 12 12 12 14 14 14 14 14 15 17 17 17 18 18 19 20 22 23 24 25 24 23 24 25 25 25 23 20 19 17 16 15 15 15 14 14 15 15 14 12 11 10 10 10 10 8 7 6 5 4 3 3 2 3 4 5 7 8 9 10
17 19 20 20 20 20 19 19 19 19 19 18 17 17 18 19 18 17 17 18 18 16 16 17 16 15 15 14 13 14 15 17 18 19 18 18 18 18 19 19 20 22 25 26 26 25 25 25 27 27 25 22 20 19 18 17 17 17 16 15 14 14 13 12 12 12 12 12 11 10 9 8 6 5 4 3 2 3 4 6 8 10 10 9 9
17 19 19 19 19 19 17 17 18 19 19 19 18 18 18 18 18 17 16 17 17 17 16 16 16 15 15 16 15 14 14 16 19 21 22 21 20 19 20 21 20 21 25 27 27 27 27 26 27 28 27 24 22 21 20 19 18 17 16 14 13 12 11 11 12 12 12 12 12 11 10 8 6 4 3 3 4 5 6 9 11 12 11 9 7
15 16 17 17 18 17 17 16 16 16 17 17 17 17 17 17 17 17 16 15 16 16 16 16 15 14 14 16 17 17 16 16 17 19 22 23 20 16 15 17 18 19 23 25 25 26 28 29 30 29 26 24 24 23 22 21 19 18 16 14 13 12 11 11 11 12 12 12 12 11 10 8 6 4 3 3 4 6 8 11 12 12 10 9 8
13 14 15 15 15 16 16 15 15 15 15 15 15 15 15 15 16 16 17 17 16 16 16 16 15 13 13 16 18 18 17 18 19 19 20 22 20 16 16 16 15 15 19 21 22 23 25 27 28 26 24 23 23 23 23 22 20 18 17 15 13 12 11 10 9 9 10 11 11 10 9 7 5 3 3 4 5 7 9 11 12 11 10 10 11
11 12 13 13 13 14 14 14 14 14 14 14 14 15 15 15 14 14 15 15 15 15 16 16 15 13 14 17 19 18 17 18 19 19 20 21 20 20 21 20 16 13 14 15 15 15 18 21 23 23 22 22 20 19 19 19 18 18 17 15 15 14 13 10 8 8 8 10 10 9 8 6 4 3 3 4 6 7 8 9 9 9 10 11 12
10 11 11 11 11 11 11 11 12 13 13 13 13 13 14 14 14 13 12 11 12 12 14 15 15 14 14 16 18 20 20 20 19 18 19 22 23 22 20 20 19 14 13 13 11 10 14 20 21 18 16 16 17 17 17 18 17 17 16 16 16 14 12 9 8 8 9 9 9 8 7 5 4 2 3 4 5 6 7 7 8 9 10 11 12
10 11 11 11 11 10 11 11 11 12 12 12 12 12 12 11 12 12 12 11 10 10 12 13 14 14 15 15 16 18 21 22 20 20 20 20 21 21 19 19 20 17 14 17 17 16 19 24 23 19 16 15 15 16 16 17 18 18 18 17 15 12 10 8 7 8 8 8 7 7 6 5 3 1 2 3 3 4 5 6 8 9 10 10 12
10 11 11 12 12 12 13 13 12 12 12 12 12 12 13 12 10 9 10 11 11 10 11 12 12 13 15 17 17 17 19 20 19 19 19 18 18 20 19 17 18 17 17 19 20 21 24 27 27 26 23 20 18 17 16 17 18 19 18 15 12 10 10 9 8 8 9 8 7 6 5 4 2 1 1 2 2 2 4 7 8 8 9 10 12
10 10 10 11 12 12 13 13 12 12 13 13 13 13 15 16 16 14 11 11 11 11 12 13 13 13 14 16 18 18 18 19 19 18 17 16 17 20 19 17 16 18 19 18 16 19 25 28 29 28 26 24 23 24 22 22 22 20 17 15 14 12 10 8 8 9 9 8 7 6 5 3 2 1 0 1 2 4 6 7 7 7 8 10 11
9 9 9 10 11 12 11 11 12 13 14 14 14 14 15 17 19 20 19 17 15 13 11 12 14 16 16 16 17 18 18 18 19 19 16 15 17 20 21 19 19 20 20 18 18 22 26 28 28 29 29 28 28 28 26 24 22 19 16 16 15 13 9 9 10 9 8 7 6 5 4 3 2 1 1 3 4 6 7 6 6 7 8 10 11
8 8 9 10 11 10 10 12 13 14 14 15 15 15 15 15 16 18 20 22 21 19 16 14 14 15 17 18 17 17 17 17 18 18 17 14 14 19 23 22 21 22 22 22 24 27 28 28 29 30 30 29 28 28 26 23 20 19 17 16 14 12 11 11 11 9 8 7 6 5 4 4 3 3 3 4 5 6 6 5 6 7 8 9 11
8 8 9 9 9 9 11 12 14 15 15 16 15 15 15 14 14 14 15 17 20 22 23 21 17 15 16 18 18 17 16 17 17 17 16 13 11 15 20 20 21 23 25 26 28 29 29 30 31 31 29 27 26 25 23 20 18 18 17 15 13 13 13 12 11 10 9 8 7 5 5 4 3 2 2 4 5 5 5 5 6 7 8 9 12
8 8 8 8 8 9 10 12 14 15 15 15 15 14 14 13 13 13 14 14 16 19 21 21 19 16 14 14 14 14 14 15 15 15 14 11 8 9 15 19 22 24 26 27 27 27 26 27 28 27 25 24 23 22 21 20 19 18 18 16 15 15 15 13 12 11 11 9 8 6 5 4 2 2 3 4 4 4 5 5 5 6 8 10 12
8 8 7 7 7 8 9 12 14 14 13 13 13 14 14 14 13 12 13 14 16 18 19 19 18 16 13 11 11 11 11 11 12 13 13 9 3 6 12 17 21 24 26 27 25 23 23 23 22 21 21 22 22 20 20 21 20 19 20 20 19 19 17 15 13 12 11 10 8 7 5 3 2 3 4 3 4 4 4 3 4 7 9 11 13
7 6 6 6 6 8 10 12 13 12 12 12 13 14 15 15 14 14 14 14 16 18 18 18 18 18 17 15 13 11 11 10 9 9 10 8 4 4 7 10 14 18 22 23 21 18 17 17 18 19 20 20 20 19 20 21 20 20 21 22 21 20 18 16 14 13 11 10 8 7 4 3 3 3 4 3 4 4 2 2 4 7 10 12 14
5 4 5 7 7 8 10 11 11 11 12 12 13 14 15 15 14 15 15 16 17 18 19 18 17 17 16 16 16 14 13 12 9 7 7 7 6 5 5 5 6 9 13 16 16 14 12 13 15 17 16 15 15 15 15 15 16 18 21 23 22 20 18 17 15 14 12 9 8 6 4 3 3 3 3 3 2 3 1 2 5 8 11 14 14
4 4 6 7 8 8 8 9 10 12 13 13 14 15 15 13 13 14 16 16 17 18 18 18 17 16 15 14 15 16 15 13 11 8 6 7 6 5 5 4 2 3 6 9 10 10 10 11 10 10 10 10 10 11 12 14 18 22 24 24 22 20 18 17 15 13 12 10 8 6 4 4 4 3 3 2 1 1 1 2 5 8 11 13 13
4 3 5 6 7 6 7 8 10 11 13 13 14 14 13 11 12 14 15 15 16 17 17 17 16 15 13 13 14 14 12 9 8 7 6 7 7 6 5 3 2 2 2 4 6 8 9 9 9 8 8 10 11 11 14 19 23 25 25 22 20 19 17 16 15 13 11 9 7 5 4 4 4 3 3 4 4 3 2 3 6 9 10 11 12
3 2 3 5 4 5 6 7 8 10 12 13 13 13 11 11 13 15 15 14 14 15 16 16 16 14 13 12 13 13 9 6 5 6 5 4 4 3 4 5 3 2 1 2 5 7 9 9 11 11 11 11 12 14 18 22 22 21 20 18 17 17 16 16 14 11 9 7 5 4 4 4 4 4 5 5 5 5 3 4 7 8 10 11 12
2 2 3 4 3 3 5 6 7 9 11 12 11 11 12 13 14 15 14 14 14 14 14 15 15 14 13 11 11 10 7 6 6 6 5 4 4 3 3 4 4 4 4 4 5 7 8 9 10 10 11 12 15 18 21 22 20 18 16 15 15 15 15 13 11 8 6 5 4 3 3 4 4 5 5 6 6 6 4 5 6 7 10 11 11
2 2 2 2 2 3 3 3 6 8 10 10 9 10 12 13 14 14 14 13 13 13 13 13 14 14 13 12 11 10 9 9 8 8 6 4 3 0 2 3 4 5 6 5 5 6 8 9 11 15 19 21 22 22 22 20 17 15 14 13 13 12 11 9 7 6 4 3 2 2 3 4 4 5 6 6 6 6 5 5 7 8 11 12 11
3 3 3 2 1 3 3 3 4 6 8 8 8 10 12 12 13 13 14 13 13 13 13 13 13 13 13 13 13 13 12 11 9 8 7 7 7 6 7 8 8 8 9 9 9 10 11 14 18 22 23 22 21 19 18 16 14 12 11 10 9 9 8 7 6 5 3 2 2 2 3 4 4 5 5 6 6 5 5 5 6 8 10 11 10
4 4 5 4 3 4 5 5 5 4 5 6 7 8 10 10 10 12 12 12 12 13 13 13 13 13 13 14 14 14 14 13 11 10 10 11 12 12 13 13 14 15 14 15 16 17 20 21 22 23 22 21 19 17 16 14 12 10 9 8 7 7 6 6 5 4 4 3 3 2 3 4 4 4 4 6 7 6 6 6 6 8 9 9 9
4 5 6 6 6 6 6 7 7 5 2 4 5 6 7 8 8 9 10 11 12 12 12 13 14 15 15 15 15 15 15 15 14 14 14 14 15 16 17 18 19 19 20 20 21 22 23 23 22 21 21 19 18 16 14 12 11 10 9 8 7 6 6 5 5 4 4 4 4 4 4 4 4 4 5 6 7 7 7 7 7 8 8 8 7
5 6 8 8 8 7 8 9 8 6 3 2 4 5 6 8 9 9 9 10 11 12 12 12 14 15 16 17 17 17 18 18 18 18 17 17 17 18 19 20 21 21 22 22 22 22 21 21 20 18 17 16 14 13 12 11 10 9 8 6 5 4 4 3 3 3 3 4 4 5 5 5 4 4 5 6 7 7 7 7 8 8 8 7 7
5 6 7 8 8 8 9 10 10 8 5 1 2 3 5 7 9 9 9 9 10 10 10 10 11 12 12 13 14 15 16 16 17 18 18 18 18 18 18 19 19 19 20 20 20 19 18 17 15 14 14 12 12 11 10 9 8 6 5 4 3 2 2 2 2 2 3 3 4 4 5 6 5 6 6 7 7 7 7 7 8 8 7 7 7
5 5 6 7 7 8 9 10 10 10 8 4 2 2 4 7 8 7 7 8 8 9 9 9 9 9 8 9 9 10 11 11 12 12 13 13 13 13 13 14 15 15 16 16 15 15 14 13 12 12 11 11 10 10 9 8 7 6 5 5 4 3 3 2 0 1 1 2 2 3 4 5 5 6 7 7 7 8 8 7 8 7 6 6 7
5 5 5 6 7 7 7 7 8 9 10 7 4 3 4 6 7 6 5 7 8 8 9 9 8 7 7 7 7 7 8 9 10 10 10 11 10 10 10 10 10 11 11 11 11 11 11 10 10 10 9 9 8 8 8 7 7 6 5 5 4 3 3 2 2 2 1 1 1 2 3 4 5 5 6 6 7 7 7 7 7 7 6 6 7
Wind_Direction
177 178 179 181 181 181 183 185 186 187 185 183 184 184 184 186 184 183 182 184 189 190 187 185 182 179 177 180 186 187 185 182 179 178 174 169 165 161 158 156 151 146 145 146 143 137 133 131 133 146 157 165 171 180 190 198 205 209 212 210 206 205 193 175 154 162 182 192 183 172 168 164 160 159 160 154 148 149 151 149 145 138 126 109 97
177 178 179 180 180 179 181 183 184 185 183 183 187 188 186 184 181 182 185 188 193 192 184 180 182 186 185 185 185 184 183 179 177 179 178 175 171 167 167 169 163 156 149 143 137 134 137 135 133 143 159 165 168 178 189 197 208 215 215 211 207 207 203 187 164 161 177 190 186 178 177 176 173 169 166 162 161 164 163 164 166 163 154 123 91
180 181 180 179 179 178 179 181 182 183 183 185 190 189 186 184 181 181 185 186 188 187 182 180 186 194 192 185 180 178 181 181 179 179 180 178 177 176 176 177 173 170 165 153 140 132 132 132 130 140 160 167 171 181 190 200 213 220 215 209 207 206 204 201 186 171 175 183 186 186 186 185 185 187 181 172 171 179 183 189 197 197 194 183 124
182 181 177 172 172 172 174 178 180 183 185 186 188 189 189 186 181 179 184 186 182 182 184 186 192 199 199 194 189 186 188 188 187 186 186 189 191 193 193 191 191 191 187 177 156 137 137 136 128 134 159 169 172 182 190 199 214 220 209 203 203 201 200 206 207 188 178 178 185 193 196 197 199 205 206 197 191 204 223 230 236 239 235 228 229
178 173 168 165 167 169 171 172 173 178 181 181 185 189 188 183 180 183 189 187 183 185 189 192 195 202 206 205 200 195 193 193 194 195 199 209 215 212 205 201 207 216 217 212 199 185 181 159 142 139 158 166 164 173 182 183 192 195 188 187 190 190 193 201 205 197 186 181 183 193 205 210 211 220 228 219 208 217 234 242 244 238 229 223 223
159 155 160 161 161 164 166 166 166 168 171 173 178 183 185 185 187 191 194 191 190 192 192 193 199 204 207 208 207 203 201 203 206 206 209 216 220 215 209 208 216 224 226 223 219 219 220 199 172 160 163 166 163 167 173 169 170 172 171 173 178 184 188 191 195 196 188 180 180 188 201 212 218 226 230 219 210 212 210 208 206 194 186 189 198
142 151 162 159 155 159 163 166 162 157 158 166 175 181 189 197 196 194 196 196 197 198 196 196 201 205 207 209 210 211 211 213 213 211 214 219 219 213 210 213 221 224 225 222 221 223 220 216 211 201 195 182 173 175 178 174 169 167 167 170 174 180 184 185 191 190 179 169 166 172 182 194 207 212 204 195 196 197 187 174 160 158 166 175 181
145 157 162 159 159 162 166 172 172 169 172 183 191 193 196 199 197 195 197 199 201 203 203 202 204 207 209 209 210 214 216 216 213 211 215 220 219 215 214 219 223 223 224 223 221 223 223 221 221 218 219 215 197 189 191 190 181 168 164 169 175 177 177 177 180 180 174 168 161 161 164 169 177 176 169 176 179 174 174 171 161 161 170 177 179
159 161 157 158 161 161 165 172 176 180 186 191 195 197 197 198 197 195 196 199 202 205 208 209 210 210 210 210 212 216 218 218 215 213 217 220 220 220 222 224 227 228 229 228 226 226 228 229 228 223 222 222 215 205 200 204 203 187 171 170 177 178 172 167 169 171 173 170 165 165 165 164 169 174 174 179 180 174 176 175 163 159 166 176 183
171 175 171 166 164 165 169 173 177 181 187 191 193 194 195 196 197 198 200 201 203 206 208 212 217 218 218 218 219 220 221 222 219 217 220 222 222 225 227 229 231 235 237 237 237 236 234 234 233 226 221 219 218 211 198 195 201 197 184 177 179 179 173 168 169 172 174 174 172 177 173 162 166 182 185 184 182 178 179 174 160 152 156 167 182
170 181 186 177 172 175 176 178 181 183 187 191 193 193 194 197 201 207 209 206 207 209 211 215 220 223 224 223 222 222 222 222 220 218 220 223 226 230 233 234 236 239 242 243 245 243 239 236 232 228 224 220 216 210 200 192 190 186 179 174 176 182 184 184 185 186 187 183 181 188 188 167 152 162 167 161 160 162 160 160 156 135 358 342 285
157 173 180 176 179 184 184 182 181 181 185 192 195 196 199 203 207 212 213 212 211 213 214 218 223 225 224 222 221 221 222 222 221 222 224 226 229 234 237 239 240 243 244 244 246 246 242 235 227 222 220 218 213 207 200 193 188 183 180 182 190 197 201 204 204 204 206 201 190 183 182 169 151 147 148 146 146 145 123 59 9 2 351 342 332
120 140 154 160 170 185 192 190 184 181 185 191 195 200 205 209 211 212 213 214 215 216 218 223 227 227 224 222 222 222 225 225 225 228 230 229 231 236 239 242 244 244 244 245 247 245 239 229 219 212 211 210 207 203 199 194 190 188 191 196 204 204 200 199 199 200 206 205 193 176 165 164 158 152 150 149 151 356 354 353 351 350 346 344 335
80 84 93 110 127 158 185 194 194 192 190 184 187 195 201 206 211 213 215 217 217 219 223 226 229 230 227 226 226 226 228 229 230 231 232 232 234 237 239 240 242 243 246 248 247 241 232 222 213 207 204 202 202 201 200 197 194 193 193 192 191 190 188 188 184 180 182 189 189 174 160 155 155 156 158 168 290 325 337 341 340 337 339 341 323
64 64 65 68 75 91 116 141 162 174 174 182 198 203 187 189 207 213 216 218 217 220 227 228 228 229 227 225 225 226 228 229 230 231 232 233 234 236 238 240 243 247 249 246 240 233 223 216 211 207 202 198 199 201 199 195 190 183 175 166 162 160 158 160 159 158 162 166 165 159 153 150 152 160 171 229 289 313 324 326 324 323 328 334 297
60 59 58 57 59 66 73 76 78 77 83 124 198 216 188 192 213 218 219 220 216 217 226 231 229 228 227 229 231 231 231 231 231 231 230 231 233 236 239 242 245 248 244 236 230 221 213 210 209 208 203 195 191 190 188 184 178 170 161 152 148 147 143 139 138 136 136 138 139 142 147 150 158 174 202 254 282 298 307 312 316 312 309 299 264
58 58 57 56 57 60 64 68 69 70 70 70 69 76 152 193 215 220 224 229 220 211 217 228 233 234 235 236 237 237 237 237 236 234 232 232 235 237 237 238 241 240 231 225 222 215 210 209 209 206 199 188 182 181 182 182 176 171 167 160 157 155 148 144 143 140 139 141 143 147 153 161 174 204 233 250 266 275 280 295 303 298 296 289 270
54 56 56 55 54 55 59 61 63 64 63 62 61 61 65 93 227 232 234 239 235 222 219 226 234 236 235 236 239 241 241 239 237 237 238 238 238 235 232 233 234 230 223 220 218 214 211 210 207 205 198 188 186 188 188 189 187 184 180 174 169 165 160 157 154 148 146 148 149 153 161 176 197 218 234 244 255 266 275 283 285 286 286 277 275
50 52 52 51 50 50 52 54 55 56 55 54 56 56 57 60 60 295 259 260 259 250 240 238 241 243 242 242 244 246 247 244 242 242 241 238 234 229 226 226 227 224 221 219 214 211 211 208 207 208 205 198 197 197 198 201 203 200 194 187 179 173 168 164 159 155 154 153 153 160 174 191 205 217 228 243 256 267 276 280 279 280 276 263 271
49 51 50 48 47 45 45 47 47 47 46 46 46 47 47 49 52 51 36 342 289 276 272 266 261 257 255 253 252 251 251 252 251 247 239 231 226 221 219 221 222 220 217 215 211 207 206 206 207 208 207 204 202 202 205 211 214 211 203 196 188 179 171 166 162 162 161 157 159 169 174 173 174 175 179 197 235 268 290 301 301 300 294 283 286
47 48 47 46 45 42 41 41 41 40 38 37 36 37 35 33 34 38 39 36 28 3 326 298 284 276 269 266 265 262 257 256 255 245 232 224 219 219 222 224 222 218 214 212 210 206 202 202 203 204 205 204 203 205 207 209 213 215 211 203 194 183 174 168 166 166 165 166 167 164 157 149 141 133 128 112 90 69 52 37 18 358 339 327 317
44 45 45 44 42 39 37 34 34 33 31 28 28 28 26 23 21 21 21 21 23 22 16 1 332 308 293 283 278 274 266 261 252 237 228 225 224 225 230 230 226 220 214 209 207 207 204 202 202 202 203 203 203 205 204 202 205 207 203 194 185 178 173 169 170 175 178 177 168 155 149 147 143 136 123 101 84 62 35 14 356 341 330 324 318
46 46 46 45 42 39 36 31 28 25 22 21 20 17 15 14 14 15 14 12 9 7 7 6 359 346 331 311 293 283 272 261 250 242 237 235 232 229 230 232 230 226 220 215 212 210 207 205 203 201 200 200 202 201 197 194 192 188 184 180 175 172 170 171 175 180 178 171 164 156 152 154 152 143 127 108 91 48 6 347 337 329 324 318 312
45 44 44 42 39 37 35 31 29 25 21 18 14 11 10 9 8 9 8 8 8 4 357 355 353 348 342 332 317 301 282 267 258 252 249 247 241 233 228 227 230 232 230 226 221 216 213 210 207 203 199 198 197 194 189 185 181 177 174 173 171 170 171 171 173 175 172 167 165 162 159 158 155 142 124 98 65 23 358 349 344 340 335 329 321
42 44 43 40 36 32 28 27 26 26 25 23 20 16 12 10 10 10 4 2 5 5 357 351 347 341 334 329 326 319 306 287 270 259 256 255 249 239 231 228 230 232 232 230 227 224 220 215 209 203 197 193 190 184 179 176 174 171 170 169 168 170 174 172 171 171 170 168 167 166 161 156 147 129 103 66 30 6 356 354 353 352 350 348 347
36 39 39 38 35 32 29 26 23 20 20 21 21 18 15 13 13 13 10 7 5 3 356 352 347 337 325 318 315 313 312 308 292 274 265 259 250 241 235 233 234 237 235 232 230 228 222 215 206 197 189 185 185 181 174 171 169 166 165 166 167 170 175 176 173 172 170 167 167 165 158 150 137 114 82 43 15 2 0 360 359 359 2 1 359
27 27 27 27 26 25 25 24 19 15 14 13 12 11 10 10 9 8 8 6 3 360 355 353 354 345 325 317 315 309 302 299 294 282 271 263 256 250 246 242 246 251 244 235 231 229 222 211 200 191 185 185 185 179 170 166 165 162 161 161 161 163 167 171 173 173 170 166 163 158 152 143 130 109 74 35 15 10 8 4 2 5 6 360 350
33 31 26 22 19 18 17 15 11 8 5 2 1 1 0 1 2 5 6 3 358 354 350 348 351 348 333 327 328 321 306 295 289 283 276 270 264 256 246 238 237 247 249 240 233 227 214 197 184 181 183 183 178 171 165 161 160 159 158 157 157 158 160 162 162 160 159 160 159 156 153 147 134 113 63 28 16 11 8 3 2 1 354 344 338
47 43 37 30 27 25 23 21 17 11 4 356 351 349 347 347 347 347 351 354 351 345 341 339 341 339 333 332 332 327 318 308 299 292 286 276 267 259 245 228 220 226 236 234 228 215 198 186 176 170 167 165 166 170 169 163 159 158 159 161 160 158 158 162 162 157 156 160 160 158 156 149 137 107 43 24 14 6 360 355 350 341 334 331 330
54 52 46 42 42 41 37 33 27 20 13 4 355 346 337 334 333 330 330 332 332 330 328 328 329 328 327 327 325 323 322 319 309 299 294 283 266 253 241 227 225 229 225 215 209 200 191 186 181 175 170 169 175 179 172 164 162 163 165 164 159 153 158 170 172 165 162 163 161 159 158 152 141 104 38 21 10 1 345 334 330 327 326 327 328
58 52 43 40 40 36 28 23 17 13 12 11 8 0 349 340 335 331 327 322 319 319 319 318 317 317 317 319 319 316 317 321 315 301 293 286 263 243 235 234 233 223 204 195 194 191 187 184 182 181 181 184 189 190 182 177 176 173 169 165 159 158 170 179 178 172 169 167 167 168 166 159 147 120 55 15 358 338 317 316 320 321 323 328 328
58 49 39 33 28 21 16 14 14 14 14 15 12 6 358 349 342 337 333 326 318 315 317 319 318 313 308 309 313 312 311 315 317 308 294 280 259 242 237 239 231 212 198 195 197 197 194 188 185 185 187 189 195 196 192 188 187 180 172 167 163 164 172 178 178 176 176 175 175 173 169 160 151 135 75 331 317 310 309 313 317 319 322 327 326
49 41 32 25 19 16 18 23 25 23 17 13 7 0 357 353 345 338 333 329 323 313 308 313 319 317 312 307 306 308 307 307 311 312 302 282 260 246 241 241 233 218 208 209 214 211 203 195 193 196 196 195 197 197 193 190 188 182 175 170 165 164 171 178 177 176 178 179 176 173 174 182 191 213 273 299 308 314 315 313 314 320 325 328 326
39 30 22 20 21 27 34 36 32 24 14 7 2 358 357 356 352 345 338 334 331 324 316 312 312 312 312 309 304 304 304 304 307 310 306 293 268 250 242 237 229 218 213 216 220 217 212 208 208 210 209 206 201 196 192 189 186 182 178 172 166 171 182 183 178 179 183 184 183 190 206 221 231 246 282 308 314 316 315 310 313 321 326 327 327
32 28 27 32 38 44 44 37 27 18 12 9 6 4 360 355 353 353 350 343 338 332 326 323 320 314 311 312 311 310 310 310 311 310 307 303 286 255 238 224 214 209 209 214 219 220 221 222 219 216 217 214 203 194 189 187 185 185 182 173 170 182 190 186 180 184 189 191 195 205 212 219 228 253 298 315 315 312 311 310 313 318 320 325 328
37 40 43 50 54 52 46 33 21 15 13 12 8 3 357 351 350 354 356 352 345 340 335 334 331 323 315 313 314 316 318 320 321 321 318 317 306 260 234 223 217 214 212 213 217 221 226 226 221 217 215 210 199 192 189 188 188 188 184 181 186 194 194 188 183 185 188 190 194 196 197 201 219 277 309 316 320 319 317 315 315 315 317 324 327
47 50 52 60 66 59 44 28 20 16 13 11 9 3 358 355 355 358 358 353 349 348 348 349 349 343 336 329 322 319 323 327 328 331 332 332 306 239 237 234 229 223 218 215 215 219 222 222 220 219 214 206 199 197 195 193 194 190 184 186 194 195 189 185 186 188 189 189 187 187 193 207 240 291 309 319 333 337 332 326 320 314 313 317 322
53 54 62 78 80 59 37 24 20 20 17 12 8 4 3 4 5 5 1 355 352 352 354 357 1 1 357 353 346 335 330 330 329 331 335 336 324 279 267 253 238 229 223 216 212 216 224 226 224 221 216 211 209 210 206 199 195 190 185 184 186 185 182 183 186 188 189 187 184 187 201 223 254 290 301 315 346 2 5 334 317 312 310 312 318
70 75 84 83 66 42 29 25 24 23 20 14 9 6 7 9 10 9 6 358 354 355 355 356 358 1 1 1 359 352 345 339 337 333 334 337 344 346 334 304 259 238 229 219 212 213 216 214 212 211 211 212 216 219 216 204 191 184 183 181 178 178 181 184 185 186 186 187 187 194 210 234 260 285 294 310 354 21 24 327 315 310 307 309 317
85 90 87 67 37 22 29 32 26 20 16 12 9 11 12 13 13 12 9 3 357 355 355 357 357 357 356 356 358 356 351 345 340 330 315 311 319 333 347 354 343 255 242 235 230 224 212 202 200 201 203 213 224 225 216 201 186 179 178 177 175 176 181 184 184 186 187 188 194 202 218 243 263 271 265 258 265 267 275 302 305 301 303 312 325
79 82 81 53 24 21 39 33 17 13 13 10 11 17 18 19 21 18 12 8 6 1 359 1 1 356 350 348 350 352 351 348 346 343 327 311 302 294 294 313 354 347 278 244 238 239 232 221 215 212 218 235 242 226 203 190 180 172 169 170 171 174 178 181 184 187 187 189 199 214 235 253 260 251 235 230 229 228 248 282 293 300 312 326 333
70 80 87 63 34 32 43 29 7 7 11 10 16 27 31 29 28 23 16 14 16 11 6 6 5 360 353 348 347 351 357 4 7 4 352 335 326 307 281 272 273 296 306 226 216 228 235 227 217 214 219 229 224 199 182 177 171 163 161 166 171 175 178 179 180 183 187 195 212 234 245 247 245 236 232 232 224 216 235 275 289 306 325 331 328
84 95 96 72 30 17 35 27 6 5 10 11 18 36 45 41 33 27 22 23 25 22 17 14 11 8 8 4 358 0 15 27 17 2 346 332 335 331 293 261 234 223 232 227 211 214 226 226 211 192 179 176 171 163 160 162 164 163 166 171 175 176 176 175 176 184 196 207 221 233 230 229 235 238 240 238 226 219 240 274 289 309 328 331 328
135 137 126 86 21 356 11 14 0 2 8 11 20 40 51 48 38 30 27 28 31 31 30 27 22 19 20 24 26 32 40 38 23 8 2 3 7 5 196 199 201 202 199 191 186 199 212 203 175 154 145 145 147 148 150 155 159 161 163 165 167 169 170 171 174 180 185 191 202 213 217 226 238 245 245 239 229 226 246 271 283 307 327 334 335
218 224 222 218 320 327 320 323 341 354 2 10 25 43 53 52 44 35 31 31 35 38 38 37 35 33 32 36 40 44 46 45 37 31 39 57 75 99 124 138 146 153 152 148 151 161 163 156 147 141 136 136 136 136 135 136 136 136 140 147 155 159 160 161 162 162 164 170 179 198 226 238 246 254 249 233 222 228 254 272 285 309 328 334 336
221 222 234 248 271 291 293 289 294 319 353 15 29 43 54 55 49 42 37 38 42 46 46 46 47 48 47 49 52 54 57 59 62 65 72 83 92 99 108 116 122 126 128 131 135 139 138 135 133 130 127 126 127 126 126 127 130 133 136 142 149 153 156 161 170 177 185 195 202 220 240 245 254 262 247 225 220 236 260 272 288 314 330 332 333
216 218 236 255 267 273 276 275 270 272 324 24 34 45 56 59 54 48 46 47 49 52 56 59 61 61 61 61 62 64 67 71 76 80 84 89 95 100 105 109 112 115 118 122 125 126 125 124 123 123 122 123 125 126 129 133 136 140 143 146 150 157 164 175 189 200 208 218 227 236 243 247 253 254 239 222 226 245 260 267 282 311 332 334 333
247 245 248 254 256 256 258 260 254 245 245 29 44 54 62 65 63 59 55 53 53 54 58 64 68 70 72 73 74 76 78 80 82 85 87 88 91 95 100 104 107 110 113 115 116 116 115 115 116 116 117 118 119 122 126 130 133 136 140 142 146 155 168 187 206 220 231 238 239 240 243 246 246 242 233 225 230 245 255 260 273 299 327 333 327
277 270 261 260 259 255 254 254 248 238 231 224 68 76 79 78 74 66 58 55 55 54 53 58 65 68 72 75 78 81 83 84 83 85 87 89 90 91 94 98 102 105 107 107 107 106 106 106 107 109 112 115 118 121 123 124 125 126 128 131 136 143 158 188 222 240 247 252 252 249 247 245 238 231 228 228 234 243 248 255 269 288 314 330 328
285 275 268 268 268 261 257 258 252 240 230 228 214 134 108 99 89 72 53 46 49 51 49 49 52 57 61 65 71 77 81 82 83 83 84 85 87 90 93 96 100 102 104 105 106 105 105 106 107 109 112 115 117 118 116 114 114 115 117 118 117 109 100 94 81 294 277 269 261 252 244 238 230 226 228 234 240 246 250 258 272 286 304 330 342
262 267 275 274 266 256 257 265 259 240 227 222 218 191 149 127 114 90 50 34 38 44 44 39 37 43 55 60 65 75 85 87 86 85 83 81 81 83 86 91 97 101 104 106 108 108 108 109 111 112 114 115 116 116 115 114 114 113 110 105 99 88 74 61 39 21 12 342 277 247 238 232 224 225 237 247 251 255 261 268 277 288 303 325 340